[[{"header":{"parameterUnit":"m.s-1","parameterCategory":1,"la1":30.2991,"la2":30.254,"lo1":-89.0895,"lo2":-89.0444,"dy":0.0017,"dx":0.0017,"nx":28,"ny":28,"refTime":"2023-10-16T21:00:00:Z","depth":0,"parameterNumber":2,"parameterNumberName":"U-component_of_WINDS"},"data":[0,0,0,0,0,0,0,0,0,0,0,0,0,0,0,0,0,0,0,0,0,0,0,0,0,0,0,0,0,0,0,0,0,0,0,0,0,0,0,0,0,0,0,0,0,0,0,0,0,0,0,0,0,0,0,0,0,0,2.5063,2.5062,0,2.5045,2.5044,2.5044,2.5008,2.5007,2.5007,2.5006,2.4987,2.4987,2.4987,0,0,0,0,0,0,0,0,0,0,0,0,0,2.5066,2.5066,2.5063,2.5062,2.5062,2.5045,2.5044,2.5044,2.5008,2.5007,2.5006,2.5006,2.4987,2.4987,2.4987,0,0,0,0,0,0,0,0,0,0,0,0,0,2.5058,2.5066,2.5063,2.5042,2.504,2.5045,2.5044,2.5044,2.5008,2.5007,2.5006,2.5005,2.4987,2.4987,2.4987,2.501,0,0,2.4988,2.4988,0,0,0,0,0,0,0,0,2.5059,2.5058,2.5045,2.5044,2.5041,2.5027,2.5039,2.5033,2.5009,2.502,2.5006,2.5005,2.5001,2.5,2.4999,2.5009,2.5008,2.4988,2.4988,2.4988,2.4988,0,0,0,0,0,0,0,2.5059,2.5059,2.5055,2.5045,2.5043,2.5034,2.5032,2.5037,2.5017,2.5019,2.5017,2.5015,2.5,2.4999,2.4998,2.5008,2.4988,2.4988,2.4988,2.4988,2.5038,2.5039,0,0,0,0,0,0,2.5063,2.5059,2.5056,2.5055,2.5048,2.5035,2.5032,2.5033,2.5017,2.5013,2.5016,2.5013,2.4999,2.4998,2.4997,2.5024,2.4988,2.4988,2.4988,2.5036,2.5038,2.5039,0,0,0,0,0,0,2.5063,2.5063,2.5057,2.5056,2.5055,2.5036,2.5037,2.5033,2.5032,2.5014,2.501,2.5019,2.4998,2.4997,2.5007,2.5023,2.4988,2.4988,2.5035,2.5037,2.5038,2.5077,0,0,0,0,0,0,2.5063,2.5063,2.5071,2.5057,2.5055,2.5067,2.5038,2.5034,2.5033,2.5029,2.5016,2.5013,2.4997,2.5007,2.5008,2.5023,2.4989,2.5033,2.5036,2.5038,2.5074,2.508,2.5085,0,0,0,0,0,2.5064,2.5082,2.5072,2.5072,2.5065,2.5068,2.5067,2.5049,2.5034,2.5042,2.5031,2.5013,2.5021,2.5009,2.5009,2.5024,2.5032,2.5035,2.5038,2.5072,2.5079,2.5085,0,0,0,0,0,0,2.5098,2.508,2.5068,2.5083,2.5077,2.5062,2.5071,2.5057,2.5055,2.5051,2.5029,2.5026,2.504,2.5033,2.5019,2.5046,2.5024,2.5027,2.505,2.5056,2.5062,2.5063,2.4989,0,0,0,0,0,2.5108,2.5112,2.5095,2.511,2.5108,2.5091,2.5091,2.5078,2.5071,2.5068,2.5058,2.5052,2.5053,2.5054,2.5055,2.5073,2.5071,2.5084,2.5089,2.5094,2.5096,2.5107,2.5113,2.5048,2.5048,2.5048,0,0,2.5127,2.5118,2.5121,2.5117,2.5111,2.5116,2.5089,2.5094,2.5098,2.5069,2.5079,2.5071,2.5063,2.5078,2.5084,2.5073,2.5114,2.5097,2.5101,2.5101,2.511,2.5117,2.5122,2.505,2.5049,2.5049,0,0,2.5165,2.5158,2.517,2.5165,2.5157,2.5146,2.5149,2.5136,2.513,2.5139,2.5118,2.5122,2.5125,2.512,2.5118,2.5157,2.5141,2.5158,2.5185,2.5196,2.5201,2.5205,2.522,2.5225,2.5161,2.5161,2.5161,0,2.519,2.5196,2.5178,2.5186,2.5185,2.516,2.5173,2.5169,2.5161,2.5161,2.5148,2.5152,2.5145,2.516,2.5169,2.5168,2.5172,2.5159,2.5202,2.5206,2.521,2.5224,2.5229,2.5163,2.5163,2.5163,2.5162,0,2.5228,2.5233,2.5244,2.5238,2.5238,2.5248,2.5232,2.5235,2.5222,2.5212,2.5223,2.5214,2.5212,2.5215,2.5202,2.5228,2.5221,2.5206,2.5183,2.5219,2.5231,2.5236,2.5166,2.5165,2.5165,2.5164,0,0,2.5285,2.5271,2.5275,2.5273,2.5263,2.5267,2.5276,2.5276,2.5279,2.5275,2.5283,2.5287,2.5273,2.5271,2.5258,2.5267,2.53,2.525,2.525,2.526,2.5329,2.5341,2.5347,2.5289,2.529,2.5291,2.533,0,2.5321,2.5337,2.5321,2.534,2.5345,2.5323,2.5331,2.5327,2.5318,2.5322,2.5312,2.5316,2.5296,2.5295,2.5304,2.5294,2.5313,2.5291,2.5297,2.5297,2.5299,2.5353,2.5366,2.5403,2.5334,2.5335,2.5336,0,2.5364,2.5364,2.5383,2.5374,2.5375,2.5383,2.5382,2.5386,2.538,2.5374,2.5373,2.5358,2.5367,2.5346,2.5359,2.5344,2.5346,2.5342,2.5343,2.5342,2.5318,2.5355,2.5414,2.542,2.5343,2.5342,2.5342,0,2.5405,2.5409,2.5422,2.542,2.5409,2.5416,2.5412,2.5405,2.5407,2.5406,2.5407,2.5407,2.5407,2.5408,2.5394,2.5379,2.5409,2.5386,2.5404,2.5405,2.5411,2.5411,2.5471,2.5412,2.5412,2.5412,2.5412,0,2.5446,2.5459,2.544,2.5448,2.5462,2.5445,2.546,2.5453,2.5448,2.5455,2.5435,2.5442,2.5423,2.5427,2.5416,2.543,2.543,2.5425,2.5422,2.5427,2.5427,2.5427,2.5424,2.5413,2.5413,2.5413,2.5413,0,2.5494,2.5481,2.5494,2.5483,2.5481,2.5492,2.5483,2.549,2.5482,2.549,2.5491,2.5477,2.5482,2.5468,2.547,2.5463,2.5483,2.5475,2.5485,2.5482,2.5501,2.55,2.5564,2.5572,2.5508,2.5508,2.5509,0,2.5521,2.5531,2.5522,2.5525,2.5522,2.5528,2.5529,2.5513,2.5516,2.5512,2.552,2.5523,2.5525,2.5534,2.5524,2.5526,2.5519,2.5541,2.5519,2.5524,2.5519,2.5519,2.552,2.5545,2.5546,2.5547,2.5547,0,2.5571,2.5565,2.5568,2.5569,2.5572,2.5572,2.5571,2.5575,2.5558,2.5562,2.5567,2.5569,2.5572,2.5576,2.5576,2.5572,2.5557,2.5555,2.5559,2.5564,2.5569,2.5567,2.5497,2.5553,2.5552,2.5552,2.5552,2.5552,2.5609,2.5617,2.5613,2.5617,2.5615,2.5615,2.5622,2.5615,2.5619,2.562,2.5611,2.5618,2.5614,2.5614,2.5611,2.5617,2.5607,2.5613,2.5615,2.5617,2.562,2.5569,2.5617,2.5617,2.5617,2.5617,2.5617,0,2.5659,2.5655,2.5659,2.5659,2.5663,2.565,2.5648,2.5653,2.5659,2.5657,2.566,2.5667,2.5671,2.5662,2.5665,2.5672,2.5665,2.5673,2.5673,2.5672,2.5629,2.5625,2.5679,2.5679,2.5679,2.5679,2.5679,2.5679,2.5685,2.5698,2.5692,2.5704,2.5701,2.5708,2.5709,2.5709,2.5707,2.5716,2.572,2.5714,2.571,2.5713,2.5716,2.5714,2.5716,2.5726,2.5722,2.5681,2.5675,2.5669,2.5665,2.5727,2.5727,2.5764,2.5765,2.5765]},{"header":{"parameterUnit":"m.s-1","parameterCategory":1,"la1":30.2991,"la2":30.254,"lo1":-89.0895,"lo2":-89.0444,"dy":0.0017,"dx":0.0017,"nx":28,"ny":28,"refTime":"2023-10-16T21:00:00:Z","depth":0,"parameterNumber":3,"parameterNumberName":"V-component_of_WINDS"},"data":[0,0,0,0,0,0,0,0,0,0,0,0,0,0,0,0,0,0,0,0,0,0,0,0,0,0,0,0,0,0,0,0,0,0,0,0,0,0,0,0,0,0,0,0,0,0,0,0,0,0,0,0,0,0,0,0,0,0,-5.6278,-5.6279,0,-5.6365,-5.6366,-5.6367,-5.6363,-5.6362,-5.636,-5.6359,-5.6442,-5.6446,-5.6449,0,0,0,0,0,0,0,0,0,0,0,0,0,-5.6103,-5.6107,-5.6277,-5.6279,-5.628,-5.6365,-5.6366,-5.6367,-5.6363,-5.6361,-5.636,-5.6359,-5.6441,-5.6445,-5.6449,0,0,0,0,0,0,0,0,0,0,0,0,0,-5.6183,-5.6108,-5.6277,-5.6288,-5.629,-5.6364,-5.6366,-5.6367,-5.6363,-5.6361,-5.636,-5.6358,-5.644,-5.6445,-5.645,-5.6517,0,0,-5.6465,-5.6467,0,0,0,0,0,0,0,0,-5.6179,-5.619,-5.6285,-5.6288,-5.629,-5.6351,-5.6335,-5.6417,-5.6364,-5.6335,-5.6359,-5.6357,-5.6413,-5.642,-5.644,-5.6521,-5.6525,-5.6466,-5.6469,-5.6471,-5.6472,0,0,0,0,0,0,0,-5.6173,-5.6186,-5.6312,-5.6287,-5.6289,-5.6287,-5.6297,-5.6351,-5.6383,-5.6338,-5.6338,-5.6348,-5.6414,-5.6436,-5.6442,-5.6526,-5.6465,-5.647,-5.6473,-5.6475,-5.6669,-5.6671,0,0,0,0,0,0,-5.6166,-5.6181,-5.6309,-5.6314,-5.6229,-5.6292,-5.6302,-5.6333,-5.6383,-5.6388,-5.635,-5.6348,-5.6428,-5.6436,-5.6445,-5.6529,-5.6471,-5.6475,-5.6478,-5.6667,-5.6669,-5.6671,0,0,0,0,0,0,-5.6163,-5.6178,-5.6306,-5.6248,-5.6264,-5.6297,-5.6331,-5.6336,-5.6358,-5.6392,-5.6397,-5.6366,-5.6427,-5.6438,-5.65,-5.6532,-5.6478,-5.6482,-5.6664,-5.6667,-5.667,-5.6696,0,0,0,0,0,0,-5.6158,-5.6176,-5.6203,-5.6249,-5.6267,-5.6361,-5.6333,-5.6339,-5.6367,-5.6365,-5.6409,-5.6414,-5.6426,-5.6493,-5.6505,-5.6538,-5.6486,-5.6661,-5.6666,-5.6669,-5.6693,-5.67,-5.6706,0,0,0,0,0,-5.6151,-5.6205,-5.6205,-5.622,-5.6302,-5.6362,-5.6373,-5.6387,-5.637,-5.6396,-5.6419,-5.6413,-5.6527,-5.6499,-5.6513,-5.6548,-5.6659,-5.6664,-5.6669,-5.669,-5.6698,-5.6706,0,0,0,0,0,0,-5.6159,-5.6211,-5.6211,-5.6281,-5.6318,-5.6362,-5.6396,-5.6396,-5.6436,-5.6433,-5.6447,-5.6457,-5.652,-5.654,-5.6509,-5.6617,-5.659,-5.6598,-5.6601,-5.661,-5.6616,-5.661,-5.649,0,0,0,0,0,-5.617,-5.6216,-5.6258,-5.6316,-5.6335,-5.6362,-5.6389,-5.6398,-5.6435,-5.645,-5.6477,-5.6512,-5.6556,-5.6584,-5.6626,-5.6696,-5.6705,-5.6726,-5.6733,-5.6738,-5.6745,-5.6785,-5.6795,-5.6687,-5.6687,-5.6687,0,0,-5.619,-5.6225,-5.6253,-5.6319,-5.6348,-5.6395,-5.6375,-5.6425,-5.646,-5.6457,-5.6518,-5.6539,-5.6579,-5.6646,-5.6677,-5.6665,-5.6777,-5.6744,-5.6748,-5.6752,-5.679,-5.6801,-5.681,-5.669,-5.669,-5.6689,0,0,-5.6253,-5.6284,-5.6336,-5.6367,-5.6413,-5.6431,-5.6444,-5.6489,-5.6503,-5.6566,-5.6565,-5.6606,-5.6681,-5.671,-5.6734,-5.6812,-5.6808,-5.6825,-5.6859,-5.6898,-5.6906,-5.6914,-5.6942,-5.6952,-5.6831,-5.6831,-5.6831,0,-5.6273,-5.6345,-5.6363,-5.6414,-5.6444,-5.6446,-5.65,-5.6528,-5.6584,-5.6603,-5.6589,-5.6686,-5.6712,-5.6787,-5.6806,-5.6826,-5.6841,-5.6819,-5.6904,-5.6912,-5.6919,-5.6946,-5.6957,-5.6833,-5.6833,-5.6832,-5.6832,0,-5.6368,-5.6418,-5.6455,-5.6512,-5.6546,-5.6598,-5.6622,-5.6654,-5.666,-5.668,-5.6744,-5.6777,-5.6827,-5.6845,-5.685,-5.6921,-5.6912,-5.6901,-5.6875,-5.6931,-5.6957,-5.6967,-5.6835,-5.6835,-5.6834,-5.6834,0,0,-5.6435,-5.6505,-5.6518,-5.6545,-5.6597,-5.6636,-5.6688,-5.6739,-5.6766,-5.6805,-5.6849,-5.6914,-5.6905,-5.6933,-5.6942,-5.6976,-5.7036,-5.6961,-5.6962,-5.6974,-5.7117,-5.7126,-5.7137,-5.7035,-5.7037,-5.7038,-5.7114,0,-5.6504,-5.6599,-5.6618,-5.67,-5.6747,-5.6751,-5.6797,-5.6833,-5.6854,-5.6895,-5.6917,-5.6963,-5.6947,-5.6965,-5.6999,-5.7022,-5.7065,-5.7017,-5.7075,-5.7077,-5.7065,-5.7151,-5.7159,-5.7229,-5.7124,-5.7126,-5.7127,0,-5.6595,-5.6641,-5.6728,-5.6777,-5.6797,-5.6838,-5.6888,-5.6928,-5.6969,-5.6982,-5.7015,-5.7021,-5.7074,-5.7047,-5.7121,-5.7088,-5.7113,-5.7128,-5.7131,-5.7137,-5.7105,-5.7159,-5.7252,-5.7262,-5.7143,-5.7142,-5.7141,0,-5.6637,-5.6719,-5.6783,-5.6806,-5.6864,-5.6893,-5.6917,-5.6957,-5.6988,-5.7031,-5.7051,-5.7098,-5.7124,-5.716,-5.7179,-5.7157,-5.7252,-5.7226,-5.7263,-5.7263,-5.7283,-5.7281,-5.7381,-5.7299,-5.7299,-5.7298,-5.7298,0,-5.6712,-5.6765,-5.6803,-5.6842,-5.6903,-5.6924,-5.6982,-5.7006,-5.7043,-5.7086,-5.7092,-5.7132,-5.7154,-5.7197,-5.7211,-5.7271,-5.7282,-5.7293,-5.7297,-5.7293,-5.7292,-5.7309,-5.7305,-5.7301,-5.73,-5.73,-5.7299,0,-5.6768,-5.6796,-5.6866,-5.6916,-5.693,-5.6972,-5.7014,-5.7052,-5.7073,-5.7128,-5.7142,-5.7175,-5.7226,-5.7249,-5.7311,-5.7321,-5.7389,-5.7389,-5.7376,-5.7377,-5.7414,-5.741,-5.7529,-5.7545,-5.7452,-5.7453,-5.7453,0,-5.6813,-5.6855,-5.6911,-5.6942,-5.6969,-5.7018,-5.705,-5.7072,-5.7105,-5.7158,-5.7189,-5.7241,-5.7284,-5.7366,-5.7394,-5.7442,-5.7443,-5.7481,-5.745,-5.7446,-5.7444,-5.7442,-5.7446,-5.7486,-5.7487,-5.7488,-5.7489,0,-5.6892,-5.6904,-5.6952,-5.7005,-5.7044,-5.7086,-5.7127,-5.7151,-5.718,-5.7217,-5.7271,-5.7305,-5.737,-5.7422,-5.7473,-5.7496,-5.7498,-5.7499,-5.751,-5.7507,-5.7498,-5.7504,-5.7392,-5.7496,-5.7495,-5.7494,-5.7494,-5.7494,-5.6944,-5.6983,-5.7029,-5.7082,-5.7116,-5.7155,-5.7194,-5.7222,-5.7269,-5.7326,-5.7335,-5.7393,-5.7435,-5.7504,-5.753,-5.7575,-5.7565,-5.7581,-5.7585,-5.7589,-5.7592,-5.7492,-5.7584,-5.7583,-5.7583,-5.7583,-5.7583,0,-5.7024,-5.7055,-5.7104,-5.7163,-5.7205,-5.7205,-5.7251,-5.7286,-5.7338,-5.7378,-5.7421,-5.7484,-5.7535,-5.7569,-5.762,-5.7649,-5.7651,-5.7662,-5.766,-5.7666,-5.7597,-5.7582,-5.766,-5.766,-5.766,-5.766,-5.766,-5.766,-5.707,-5.7136,-5.7154,-5.7237,-5.7267,-5.7326,-5.7352,-5.7388,-5.7421,-5.7492,-5.7535,-5.7558,-5.7595,-5.765,-5.7697,-5.7705,-5.7724,-5.7735,-5.7743,-5.7678,-5.767,-5.7663,-5.7649,-5.7739,-5.7739,-5.7808,-5.7809,-5.7809]}]]